{"data":{"norad_id":41179,"epoch":"2026-05-25T04:07:55.989120Z","epoch_age_seconds":53399,"freshness":"FRESH","line1":"1 41179U 15081A   26145.17217580  .00000263  00000+0  91890-4 0  9997","line2":"2 41179  47.0038 110.8128 0001316  82.6624 277.4411 14.58825699554395","mean_motion":14.58825699,"eccentricity":0.0001316,"inclination_deg":47.0038,"raan_deg":110.8128,"arg_perigee_deg":82.6624,"mean_anomaly_deg":277.4411,"bstar":9.189e-5,"rev_number":55439,"period_min":98.70953061679,"perigee_km":696.03715925583,"apogee_km":697.89932695581,"semimajor_km":7075.1052431058,"source":"CELESTRAK","updated_at":"2026-05-25T13:38:22.864951Z"}}